This is the latest recevied weather packets stored in our database for station/object KR4ELZ. If no packets are shown the sender has not sent any weather packets the latest 10 day(s).
| Time | Temp. | Humidity | Pressure | Rain* | Wind** | Luminosity | Snow |
|---|---|---|---|---|---|---|---|
| 1777846591 | 23.89° C | 36% | 1016.5 hPa | 0 mm | - | 210 W/m² | - |
| 1777846288 | 24.44° C | 35% | 1016.3 hPa | 0 mm | - | 221 W/m² | - |
| 1777845984 | 23.33° C | 36% | 1016.5 hPa | 0 mm | - | 232 W/m² | - |
| 1777845681 | 23.89° C | 35% | 1016.7 hPa | 0 mm | - | 247 W/m² | - |
| 1777845378 | 23.33° C | 36% | 1016.6 hPa | 0 mm | - | 258 W/m² | - |
| 1777845075 | 23.33° C | 35% | 1016.7 hPa | 0 mm | - | 273 W/m² | - |
| 1777844774 | 23.33° C | 35% | 1016.9 hPa | 0 mm | - | 287 W/m² | - |
| 1777844469 | 23.33° C | 36% | 1016.8 hPa | 0 mm | - | 300 W/m² | - |
| 1777844168 | 23.89° C | 35% | 1016.8 hPa | 0 mm | - | 311 W/m² | - |
| 1777843864 | 23.89° C | 34% | 1017.2 hPa | 0 mm | - | 326 W/m² | - |
| 1777843561 | 23.33° C | 34% | 1017.1 hPa | 0 mm | - | 337 W/m² | - |
| 1777843259 | 23.89° C | 34% | 1017.2 hPa | 0 mm | - | 352 W/m² | - |
| 1777842956 | 24.44° C | 34% | 1017.3 hPa | 0 mm | - | 367 W/m² | - |
| 1777842651 | 23.89° C | 34% | 1017.3 hPa | 0 mm | - | 379 W/m² | - |
| 1777842348 | 23.89° C | 34% | 1017.4 hPa | 0 mm | - | 389 W/m² | - |
| 1777842044 | 23.33° C | 35% | 1017.5 hPa | 0 mm | - | 406 W/m² | - |
| 1777841741 | 23.89° C | 38% | 1017.4 hPa | 0 mm | - | 418 W/m² | - |
| 1777841437 | 22.78° C | 37% | 1017.5 hPa | 0 mm | - | 432 W/m² | - |
| 1777841134 | 23.33° C | 35% | 1017.8 hPa | 0 mm | - | 444 W/m² | - |
| 1777840831 | 23.89° C | 34% | 1017.5 hPa | 0 mm | - | 456 W/m² | - |
| 1777840529 | 23.89° C | 32% | 1017.9 hPa | 0 mm | - | 469 W/m² | - |
| 1777840226 | 23.33° C | 37% | 1017.9 hPa | 0 mm | - | 481 W/m² | - |
| 1777839924 | 22.78° C | 36% | 1018.1 hPa | 0 mm | - | 492 W/m² | - |
| 1777839621 | 22.22° C | 36% | 1017.9 hPa | 0 mm | - | 506 W/m² | - |
| 1777839319 | 22.22° C | 35% | 1018.1 hPa | 0 mm | - | 518 W/m² | - |
* Rain latest hour (hover to see other rain measurements)
** Current wind speed in m/s (hover to see current wind gust speed)